This is the latest recevied weather packets stored in our database for station/object KG7MRB. If no packets are shown the sender has not sent any weather packets the latest 10 day(s).
| Time | Temp. | Humidity | Pressure | Rain* | Wind** | Luminosity | Snow |
|---|---|---|---|---|---|---|---|
| 1778090923 | 11.11° C | 96% | 1038.1 hPa | 0 mm | - | 66 W/m² | - |
| 1778090619 | 11.11° C | 95% | 1038 hPa | 0 mm | - | 54 W/m² | - |
| 1778090316 | 11.11° C | 95% | 1037.8 hPa | 0 mm | - | 71 W/m² | - |
| 1778090013 | 11.11° C | 95% | 1037.5 hPa | 0 mm | - | 58 W/m² | - |
| 1778089710 | 11.11° C | 95% | 1037.8 hPa | 0 mm | - | 71 W/m² | - |
| 1778089407 | 11.11° C | 96% | 1037.5 hPa | 0 mm | - | 88 W/m² | - |
| 1778089105 | 11.11° C | 96% | 1037.8 hPa | 0 mm | - | 60 W/m² | - |
| 1778088802 | 11.11° C | 95% | 1037.8 hPa | 0 mm | - | 59 W/m² | - |
| 1778088498 | 11.11° C | 95% | 1037.6 hPa | 0 mm | - | 69 W/m² | - |
| 1778088194 | 11.11° C | 96% | 1037.5 hPa | 0 mm | - | 71 W/m² | - |
| 1778087887 | 11.11° C | 96% | 1037.7 hPa | 0 mm | - | 60 W/m² | - |
| 1778087584 | 11.11° C | 95% | 1037.6 hPa | 0 mm | - | 59 W/m² | - |
| 1778087282 | 11.67° C | 95% | 1037.6 hPa | 0 mm | - | 59 W/m² | - |
| 1778086977 | 11.11° C | 96% | 1037.5 hPa | 0 mm | - | 66 W/m² | - |
| 1778086677 | 11.11° C | 96% | 1037.7 hPa | 0 mm | - | 63 W/m² | - |
| 1778086373 | 11.11° C | 96% | 1037.7 hPa | 0 mm | - | 65 W/m² | - |
| 1778086070 | 11.11° C | 95% | 1037.6 hPa | 0 mm | - | 61 W/m² | - |
| 1778085767 | 11.11° C | 95% | 1037.7 hPa | 0 mm | - | 54 W/m² | - |
| 1778085464 | 11.11° C | 96% | 1037.8 hPa | 0 mm | - | 46 W/m² | - |
| 1778085159 | 11.11° C | 96% | 1037.7 hPa | 0 mm | - | 56 W/m² | - |
| 1778084855 | 11.11° C | 96% | 1037.7 hPa | 0 mm | - | 47 W/m² | - |
| 1778084553 | 11.11° C | 96% | 1037.6 hPa | 0 mm | - | 49 W/m² | - |
| 1778084250 | 11.11° C | 96% | 1037.7 hPa | 0 mm | - | 57 W/m² | - |
| 1778083946 | 11.11° C | 96% | 1037.8 hPa | 0 mm | - | 47 W/m² | - |
| 1778083644 | 11.11° C | 95% | 1038.1 hPa | 0 mm | - | 37 W/m² | - |
* Rain latest hour (hover to see other rain measurements)
** Current wind speed in m/s (hover to see current wind gust speed)